Location: Peebles
(55.6412°N, 3.1714°W)
Time: 21:46:10
(UTC+00:00)

deb Agena D - Pass Details

Date: 30 September 2023
Orbit: 794 x 979 km, 99.8° (Epoch: 28 November)

Event Time Altitude Azimuth Distance (km) Brightness Sun altitude
Rises 02:42:12 0° 17° (NNE) 3,696 10.5 -33.4°
Reaches altitude 10° 02:44:49 10° 10° (N) 2,740 9.6 -33.2°
Enters shadow 02:49:42 38° 322° (NW) 1,431 7.4 -32.8°
